Back to catalog

STARLINK-37842

AliveCommunicationsSSO
NORAD 69487·PAYLOAD·🇺🇸 United States

Launched Jun 11, 2026 from Vandenberg Space Force Base

Loading…

Next Passes (next 24 hours)

TLE

FreshSource: CelesTrak SupGP

Epoch: Sep 14, 2026, 21:26 UTC

1 69487C 26131K   26257.89354167  .00031379  00000+0  97428-3 0  2574
2 69487  97.2834 278.8349 0001484  88.3932  64.3700 15.33416254    15

Track STARLINK-37842 in real time with AllMySat

Download on the App Store